Terminal Aerodrome Forecast
Issued by NWS Denver/Boulder, CO

Home | Current Version | Previous Version | Text Only | Print | Product List | Glossary On
Versions: 1 2 3 4 5 6 7 8 9 10 11 12 13 14 15 16 17 18 19 20 21 22 23 24 25 26 27 28 29 30 31 32 33 34 35 36 37 38 39 40 41 42 43 44 45 46 47 48 49 50
000
FTUS45 KBOU 160058 AAC
TAFDEN
TAF AMD
KDEN 160058Z 1601/1706 14009KT P6SM FEW080 SCT120
     FM160200 17012KT P6SM SCT120
     FM160400 20010KT P6SM FEW220
     FM161400 25005KT P6SM FEW140
     FM161700 36010KT P6SM FEW100 FEW220
     FM162200 08007KT P6SM FEW080 SCT120
     FM170200 15006KT P6SM FEW100 SCT120=

USA.gov is the U.S. government's official web portal to all federal, state and local government web resources and services.